Home > Time Zones > World Clock > Weather > Norway > Oslo > Past weeks

Flag for Norway Weather past 2 weeks in Oslo, Norway

Now
52 °F

Cool.


Feels Like: 52 °F
Forecast: 45 / 64 °F
Wind: 1 mph from East

Location: Oslo-Blindern

Current Time: Aug 23, 2014 at 7:40:04 AM

Latest Report: Aug 23, 2014 at 7:00 AM


Visibility: N/A

Pressure: 29.58 "Hg

Humidity: 94%

Dew point: 51 °F

Location of OsloLocation

Historic Weather in Oslo — Graph

°F

Oslo temperature yesterday

Maximum temperature yesterday: 63 °F (at 12:00 PM)
Minimum temperature yesterday: 51 °F (at 6:00 AM)
Average temperature yesterday: 56 °F

Past Weeks' High & Low Weather Summary

 TemperatureHumidityPressure
High78 °F (Aug 8, 4:00 PM)97% (Aug 17, 11:00 AM)29.90 "Hg (Aug 17, 11:00 AM)
Low49 °F (Aug 20, 4:00 AM)45% (Aug 21, 2:00 PM)29.18 "Hg (Aug 18, 9:00 AM)
Average59 °F78%29.55 "Hg
* Reported Aug 8 6:00 AM — Aug 23 6:00 AM, Oslo, Weather by CustomWeather, © 2014

Note: Actual official high and low records may vary slightly from our data, if they occured in-between our weather recording intervals... More about our weather records

Advertising

Oslo weather history for previous 24 hours

 ConditionsComfort  
Time TempWeatherWind HumidityBarometerVisibility
6:00 AM
Aug 23
52 °FCool.2 mph93%29.57 "HgN/A
5:00 AM53 °FOvercast.1 mph94%29.59 "Hg43 mi
4:00 AM53 °FCool.2 mph93%29.59 "HgN/A
3:00 AM53 °FCool.2 mph93%29.60 "HgN/A
2:00 AM53 °FOvercast.2 mph92%29.61 "Hg43 mi
1:00 AM53 °FCool.2 mph92%29.62 "HgN/A
12:00 AM53 °FCool.2 mph92%29.62 "HgN/A
11:00 PM
Aug 22
55 °FPassing clouds.2 mph86%29.63 "Hg47 mi
10:00 PM55 °FCool.2 mph85%29.63 "HgN/A
9:00 PM55 °FCool.2 mph82%29.63 "HgN/A
8:00 PM56 °FOvercast.2 mph78%29.63 "Hg47 mi
7:00 PM57 °FCool.5 mph78%29.63 "HgN/A
6:00 PM58 °FCool.5 mph74%29.64 "HgN/A
5:00 PM60 °FOvercast.3 mph70%29.64 "Hg47 mi
4:00 PM60 °FCool.5 mph73%29.65 "HgN/A
3:00 PM58 °FCool.5 mph73%29.66 "HgN/A
2:00 PM62 °FPartly sunny.3 mph59%29.66 "Hg43 mi
1:00 PM63 °FMild.6 mph59%29.65 "HgN/A
12:00 PM63 °FMild.3 mph63%29.65 "HgN/A
11:00 AM62 °FScattered clouds.3 mph57%29.66 "Hg47 mi
10:00 AM59 °FCool.2 mph66%29.66 "HgN/A
9:00 AM56 °FCool.2 mph72%29.66 "HgN/A
8:00 AM53 °FOvercast.1 mph82%29.65 "Hg47 mi
7:00 AM51 °FCool.2 mph88%29.65 "HgN/A
Weather by CustomWeather, © 2014

See weather overviewHow to use our weather pages